This is the latest recevied weather packets stored in our database for station/object KF5JED-13. If no packets are shown the sender has not sent any weather packets the latest 10 day(s).
| Time | Temp. | Humidity | Pressure | Rain* | Wind** | Luminosity | Snow |
|---|---|---|---|---|---|---|---|
| 1778244410 | 11.11° C | 76% | 1012.5 hPa | 0 mm | - | 70 W/m² | - |
| 1778244107 | 11.11° C | 77% | 1012.5 hPa | 0 mm | - | 60 W/m² | - |
| 1778243806 | 10.56° C | 78% | 1012.7 hPa | 0 mm | - | 54 W/m² | - |
| 1778243503 | 10.56° C | 78% | 1012.7 hPa | 0 mm | - | 46 W/m² | - |
| 1778243199 | 10° C | 79% | 1012.6 hPa | 0 mm | - | 38 W/m² | - |
| 1778242896 | 10° C | 80% | 1012.6 hPa | 0 mm | - | 31 W/m² | - |
| 1778242594 | 9.44° C | 80% | 1012.6 hPa | 0 mm | - | 25 W/m² | - |
| 1778242292 | 9.44° C | 80% | 1012.5 hPa | 0 mm | - | 18 W/m² | - |
| 1778241989 | 9.44° C | 81% | 1012.5 hPa | 0 mm | - | 14 W/m² | - |
| 1778241688 | 8.89° C | 82% | 1012.3 hPa | 0 mm | - | 10 W/m² | - |
| 1778241385 | 8.33° C | 80% | 1012.3 hPa | 0 mm | - | 7 W/m² | - |
| 1778241081 | 9.44° C | 80% | 1012.3 hPa | 0 mm | - | 4 W/m² | - |
| 1778240779 | 10° C | 79% | 1012.3 hPa | 0 mm | - | 2 W/m² | - |
| 1778240474 | 10° C | 78% | 1012.6 hPa | 0 mm | - | 1 W/m² | - |
| 1778240172 | 10.56° C | 77% | 1012.2 hPa | 0 mm | - | 0 W/m² | - |
| 1778239870 | 10.56° C | 77% | 1012.1 hPa | 0 mm | - | 0 W/m² | - |
| 1778239566 | 10.56° C | 76% | 1012.2 hPa | 0 mm | - | 0 W/m² | - |
| 1778239263 | 11.11° C | 76% | 1012.3 hPa | 0 mm | - | 0 W/m² | - |
| 1778238960 | 11.11° C | 75% | 1012.5 hPa | 0 mm | - | 0 W/m² | - |
| 1778238657 | 11.67° C | 74% | 1012.5 hPa | 0 mm | - | 0 W/m² | - |
| 1778238355 | 12.22° C | 73% | 1012.6 hPa | 0 mm | - | 0 W/m² | - |
| 1778238051 | 12.22° C | 73% | 1012.3 hPa | 0 mm | - | 0 W/m² | - |
| 1778237745 | 12.22° C | 72% | 1012.3 hPa | 0 mm | - | 0 W/m² | - |
| 1778237443 | 12.22° C | 72% | 1012.6 hPa | 0 mm | - | 0 W/m² | - |
| 1778237141 | 12.22° C | 72% | 1012.5 hPa | 0 mm | - | 0 W/m² | - |
* Rain latest hour (hover to see other rain measurements)
** Current wind speed in m/s (hover to see current wind gust speed)